TimeCST,TemperatureF,Dew PointF,Humidity,Sea Level PressureIn,VisibilityMPH,Wind Direction,Wind SpeedMPH,Gust SpeedMPH,PrecipitationIn,Events,Conditions,WindDirDegrees,DateUTC
12:15 AM,17.6,12.2,79,29.67,10.0,WNW,11.5,-,N/A,,Clear,290,2014-02-14 06:15:00
12:35 AM,15.8,10.4,79,29.68,10.0,West,13.8,-,N/A,,Clear,280,2014-02-14 06:35:00
12:55 AM,17.6,10.4,73,29.69,10.0,WNW,18.4,-,N/A,,Clear,290,2014-02-14 06:55:00
1:15 AM,15.8,10.4,79,29.69,10.0,WNW,18.4,-,N/A,,Clear,290,2014-02-14 07:15:00
1:35 AM,15.8,10.4,79,29.70,10.0,West,12.7,-,N/A,,Clear,270,2014-02-14 07:35:00
1:55 AM,15.8,8.6,73,29.70,10.0,WNW,11.5,-,N/A,,Clear,290,2014-02-14 07:55:00
2:15 AM,12.2,8.6,85,29.70,10.0,WNW,11.5,-,N/A,,Clear,290,2014-02-14 08:15:00
2:35 AM,12.2,8.6,85,29.70,10.0,West,13.8,-,N/A,,Clear,280,2014-02-14 08:35:00
2:55 AM,12.2,8.6,85,29.71,10.0,WNW,11.5,-,N/A,,Clear,290,2014-02-14 08:55:00
3:15 AM,12.2,6.8,79,29.70,10.0,West,10.4,-,N/A,,Clear,280,2014-02-14 09:15:00
3:35 AM,10.4,6.8,85,29.70,10.0,West,9.2,-,N/A,,Clear,280,2014-02-14 09:35:00
3:55 AM,8.6,5.0,85,29.70,10.0,WNW,10.4,-,N/A,,Clear,290,2014-02-14 09:55:00
4:15 AM,8.6,5.0,85,29.71,10.0,WNW,8.1,-,N/A,,Clear,300,2014-02-14 10:15:00
4:35 AM,10.4,6.8,85,29.71,10.0,WNW,6.9,-,N/A,,Clear,300,2014-02-14 10:35:00
4:55 AM,10.4,6.8,85,29.71,10.0,NW,5.8,-,N/A,,Clear,310,2014-02-14 10:55:00
5:15 AM,10.4,6.8,85,29.72,10.0,WNW,8.1,-,N/A,,Scattered Clouds,300,2014-02-14 11:15:00
5:35 AM,12.2,6.8,79,29.71,10.0,WNW,8.1,-,N/A,,Scattered Clouds,300,2014-02-14 11:35:00
5:55 AM,10.4,6.8,85,29.73,10.0,NW,8.1,-,N/A,,Clear,310,2014-02-14 11:55:00
6:15 AM,10.4,6.8,85,29.73,10.0,WNW,5.8,-,N/A,,Clear,290,2014-02-14 12:15:00
6:35 AM,12.2,6.8,79,29.73,10.0,WNW,8.1,-,N/A,,Scattered Clouds,290,2014-02-14 12:35:00
6:55 AM,12.2,6.8,79,29.74,10.0,WNW,8.1,-,N/A,,Mostly Cloudy,290,2014-02-14 12:55:00
7:15 AM,12.2,8.6,85,29.74,10.0,West,9.2,-,N/A,,Scattered Clouds,270,2014-02-14 13:15:00
7:35 AM,12.2,8.6,85,29.75,10.0,West,11.5,-,N/A,,Clear,270,2014-02-14 13:35:00
7:55 AM,14.0,8.6,79,29.76,10.0,West,9.2,-,N/A,,Clear,270,2014-02-14 13:55:00
8:15 AM,15.8,10.4,79,29.77,10.0,West,5.8,-,N/A,,Clear,270,2014-02-14 14:15:00
8:35 AM,15.8,10.4,79,29.76,10.0,WNW,5.8,-,N/A,,Clear,290,2014-02-14 14:35:00
8:55 AM,15.8,10.4,79,29.76,10.0,WNW,4.6,-,N/A,,Clear,300,2014-02-14 14:55:00
9:15 AM,15.8,10.4,79,29.76,10.0,NW,4.6,-,N/A,,Clear,320,2014-02-14 15:15:00
9:35 AM,15.8,10.4,79,29.76,10.0,NW,5.8,-,N/A,,Clear,320,2014-02-14 15:35:00
9:55 AM,15.8,10.4,79,29.76,10.0,NW,5.8,-,N/A,,Clear,310,2014-02-14 15:55:00
10:15 AM,17.6,10.4,73,29.78,7.0,WNW,5.8,-,N/A,,Clear,300,2014-02-14 16:15:00
10:35 AM,15.8,12.2,86,29.78,0.8,NW,5.8,-,N/A,Snow,Light Snow,310,2014-02-14 16:35:00
10:55 AM,15.8,12.2,86,29.78,0.5,NNW,8.1,-,N/A,Snow,Light Snow,340,2014-02-14 16:55:00
11:15 AM,15.8,12.2,86,29.78,0.5,NW,6.9,-,N/A,Snow,Light Snow,320,2014-02-14 17:15:00
11:35 AM,17.6,12.2,79,29.78,1.0,NW,8.1,-,N/A,Snow,Light Snow,320,2014-02-14 17:35:00
11:55 AM,17.6,12.2,79,29.77,2.0,NW,8.1,-,N/A,Snow,Light Snow,310,2014-02-14 17:55:00
12:15 PM,17.6,12.2,79,29.76,1.8,NNW,10.4,-,N/A,Snow,Light Snow,330,2014-02-14 18:15:00
12:35 PM,17.6,12.2,79,29.76,3.0,NW,12.7,-,N/A,Snow,Light Snow,320,2014-02-14 18:35:00
12:55 PM,17.6,12.2,79,29.76,5.0,NW,12.7,-,N/A,Snow,Light Snow,320,2014-02-14 18:55:00
1:15 PM,17.6,12.2,79,29.75,5.0,NNW,13.8,-,N/A,Snow,Light Snow,330,2014-02-14 19:15:00
1:35 PM,19.4,12.2,74,29.75,10.0,NNW,16.1,-,N/A,,Clear,340,2014-02-14 19:35:00
1:55 PM,19.4,12.2,74,29.74,10.0,NNW,15.0,20.7,N/A,,Scattered Clouds,340,2014-02-14 19:55:00
2:15 PM,19.4,12.2,74,29.76,10.0,NNW,13.8,-,N/A,,Scattered Clouds,340,2014-02-14 20:15:00
2:35 PM,19.4,12.2,74,29.77,10.0,NNW,15.0,-,N/A,,Scattered Clouds,330,2014-02-14 20:35:00
2:55 PM,19.4,12.2,74,29.77,10.0,NNW,15.0,-,N/A,,Scattered Clouds,330,2014-02-14 20:55:00
3:15 PM,19.4,12.2,74,29.78,10.0,NNW,15.0,-,N/A,,Clear,330,2014-02-14 21:15:00
3:35 PM,19.4,12.2,74,29.80,10.0,NNW,13.8,-,N/A,,Scattered Clouds,330,2014-02-14 21:35:00
3:55 PM,17.6,12.2,79,29.80,10.0,NW,15.0,-,N/A,,Clear,320,2014-02-14 21:55:00
4:15 PM,17.6,10.4,73,29.81,10.0,NW,12.7,-,N/A,,Clear,320,2014-02-14 22:15:00
4:35 PM,17.6,10.4,73,29.82,10.0,NW,12.7,-,N/A,,Clear,320,2014-02-14 22:35:00
4:55 PM,17.6,10.4,73,29.83,10.0,NNW,15.0,-,N/A,,Clear,330,2014-02-14 22:55:00
5:15 PM,15.8,10.4,79,29.85,10.0,NW,11.5,-,N/A,,Clear,320,2014-02-14 23:15:00
5:35 PM,15.8,8.6,73,29.86,10.0,NNW,11.5,-,N/A,,Clear,330,2014-02-14 23:35:00
5:55 PM,14.0,8.6,79,29.87,10.0,NW,9.2,-,N/A,,Clear,320,2014-02-14 23:55:00
6:15 PM,12.2,6.8,79,29.88,10.0,NW,6.9,-,N/A,,Clear,320,2014-02-15 00:15:00
6:35 PM,12.2,6.8,79,29.89,10.0,NW,4.6,-,N/A,,Clear,310,2014-02-15 00:35:00
6:55 PM,12.2,6.8,79,29.90,10.0,NW,6.9,-,N/A,,Clear,320,2014-02-15 00:55:00
7:15 PM,10.4,6.8,85,29.91,10.0,NW,5.8,-,N/A,,Clear,310,2014-02-15 01:15:00
7:35 PM,12.2,6.8,79,29.92,10.0,WNW,6.9,-,N/A,,Clear,300,2014-02-15 01:35:00
7:55 PM,12.2,6.8,79,29.93,10.0,WNW,6.9,-,N/A,,Clear,300,2014-02-15 01:55:00
8:15 PM,10.4,3.2,73,29.94,10.0,WNW,6.9,-,N/A,,Clear,290,2014-02-15 02:15:00
8:35 PM,8.6,3.2,79,29.94,10.0,WNW,8.1,-,N/A,,Clear,300,2014-02-15 02:35:00
8:55 PM,8.6,3.2,79,29.94,10.0,WNW,8.1,-,N/A,,Clear,290,2014-02-15 02:55:00
9:15 PM,6.8,3.2,85,29.96,10.0,West,6.9,-,N/A,,Clear,270,2014-02-15 03:15:00
9:35 PM,5.0,1.4,85,29.96,10.0,West,5.8,-,N/A,,Clear,280,2014-02-15 03:35:00
9:55 PM,5.0,1.4,85,29.96,10.0,West,5.8,-,N/A,,Clear,270,2014-02-15 03:55:00
10:15 PM,3.2,-0.4,85,29.97,10.0,WNW,8.1,-,N/A,,Clear,290,2014-02-15 04:15:00
10:35 PM,5.0,1.4,85,29.97,10.0,WNW,10.4,-,N/A,,Clear,290,2014-02-15 04:35:00
10:55 PM,3.2,-0.4,85,29.98,10.0,WNW,8.1,-,N/A,,Clear,290,2014-02-15 04:55:00
11:15 PM,3.2,1.4,92,29.98,10.0,WNW,11.5,-,N/A,,Clear,290,2014-02-15 05:15:00
11:35 PM,3.2,-0.4,85,29.98,10.0,WNW,10.4,-,N/A,,Clear,290,2014-02-15 05:35:00
11:55 PM,6.8,1.4,79,29.98,10.0,WNW,11.5,-,N/A,,Clear,300,2014-02-15 05:55:00